Regional Weather Roundup
Issued by NWS

Home | Current Version | Previous Version | Text Only | Print | Product List | Glossary On
Versions: 1 2 3 4 5 6 7 8 9 10 11 12 13 14 15 16 17 18 19 20 21 22 23 24 25 26 27
000
ASUS46 KSEW 011910
RWRWA

WASHINGTON REGIONAL WEATHER ROUNDUP
NATIONAL WEATHER SERVICE SEATTLE WA
1200 PM PDT SAT OCT 01 2016

NOTE:"FAIR" INDICATES FEW OR NO CLOUDS BELOW 12,000 FEET WITH NO
SIGNIFICANT WEATHER AND/OR OBSTRUCTIONS TO VISIBILITY.

WAZ505-507>509-012000-
SEATTLE, TACOMA, EVERETT, AND VICINITY

CITY           SKY/WX    TMP DP  RH WIND       PRES   REMARKS
EVERETT        CLOUDY    57  44  62 S12       29.94S
BOEING FIELD   LGT RAIN  60  48  64 VRB7      29.94R
RENTON         LGT RAIN  60  48  64 S6        29.93S
SEATAC AIRPORT DRIZZLE   58  46  64 S8        29.94S
JBLM-MCCHORD   CLOUDY    57  46  67 S15G25    29.94R
PUYALLUP       PTSUNNY   61  43  51 S12G18    29.94S
BREMERTON      CLOUDY    54  52  94 S7        29.98R
JBLM-FT LEWIS  LGT RAIN  57  48  72 SE13G24   29.93S
TACOMA NARROWS CLOUDY    57  45  64 S14G23    29.94S
$$

WAZ001-503-506-510-514-515-012000-
NORTH INTERIOR

CITY           SKY/WX    TMP DP  RH WIND       PRES   REMARKS
BELLINGHAM     CLOUDY    61  43  51 SE12G23   29.91S
FRIDAY HARBOR  CLOUDY    57  47  69 SE20G28   29.90R
EASTSOUND      CLOUDY    59  46  63 S9G16     29.86F HAZE
PORT ANGELES   CLOUDY    52  48  86 NW3       29.88R
EDIZ HOOK      MOCLDY    52  48  87 W3        29.88R
PORT TOWNSEND  FAIR      55  50  82 SE15G28   29.90R
NAS WHIDBEY    CLOUDY    61  44  53 S28G38    29.93S
ARLINGTON      CLOUDY    61  43  51 SE9       29.95S
BURLINGTON     CLOUDY    61  45  55 S14G21    29.92S
$$

WAZ020-022-039-040-504-511-512-012000-
SOUTHWEST INTERIOR

CITY           SKY/WX    TMP DP  RH WIND       PRES   REMARKS
SHELTON        RAIN      54  50  86 SE8       29.91S FOG
OLYMPIA        LGT RAIN  53  49  86 S9        29.94R FOG
CHEHALIS       NOT AVBL
KELSO          CLOUDY    58  49  72 S12G21    29.98S
VANCOUVER      CLOUDY    62  47  57 S14G20    30.00S
SCAPPOOSE, OR  CLOUDY    59  46  62 SW16G25   29.98S
PORTLAND, OR   PTSUNNY   62  47  57 S17G30    30.00S
$$

WAZ021-516-517-012000-
WASHINGTON COAST

CITY           SKY/WX    TMP DP  RH WIND       PRES   REMARKS
FORKS          LGT RAIN  52  50  93 SE10      29.86R
HOQUIAM        LGT RAIN  56  55  97 SE10      29.91R FOG
ASTORIA, OR    MOSUNNY   60  53  77 S14G24    29.93R
$$

WAZ019-023-024-040-518-519-012000-
CASCADE MOUNTAINS AND COLUMBIA GORGE

CITY           SKY/WX    TMP DP  RH WIND       PRES   REMARKS
STAMPEDE PASS  CLOUDY    49  35  58 VRB3      29.95R
TROUTDALE, OR  CLOUDY    62  47  57 SW13G20   30.00F
THE DALLES, OR CLOUDY    62  43  49 VRB3      29.99F
$$

WAZ026-027-041>044-520-521-012000-
EAST SLOPES

CITY           SKY/WX    TMP DP  RH WIND       PRES   REMARKS
OMAK           MOSUNNY   65  32  29 SE18G28   29.89F
WENATCHEE      SUNNY     64  34  32 E3        29.91S
ELLENSBURG     PTSUNNY   63  36  36 S7        29.93F
YAKIMA         MOSUNNY   66  36  32 S15G29    29.95S
$$

WAZ028-034-035-012000-
COLUMBIA BASIN

CITY           SKY/WX    TMP DP  RH WIND       PRES   REMARKS
EPHRATA        SUNNY     64  35  34 S16       29.93S
MOSES LAKE     SUNNY     64  37  36 S16G22    29.95S
PASCO          MOSUNNY   66  38  35 SW12      30.00S
HERMISTON, OR  SUNNY     66  37  34 W6G20     29.99S
$$

WAZ036>038-012000-
NORTHEAST WASHINGTON

CITY           SKY/WX    TMP DP  RH WIND       PRES   REMARKS
SPOKANE GEIGER PTSUNNY   53  40  61 SW14      30.00R
SPOKANE FELTS  CLOUDY    53  44  71 S8        30.01S
FAIRCHILD AFB  PTSUNNY   54  41  60 SW12G17   29.98S
COEURDALENE,ID PTSUNNY   52  46  80 SE7       30.01
DEER PARK      PTSUNNY   50  44  80 S9        30.01R
$$

WAZ029>033-012000-
SOUTHEAST WASHINGTON

CITY           SKY/WX    TMP DP  RH WIND       PRES   REMARKS
PULLMAN        MOSUNNY   59  35  40 W14       30.02S
LEWISTON, ID   SUNNY     65  37  35 NE8       29.98F
WALLA WALLA    SUNNY     64  37  36 W8G20     30.00S
PENDLETON, OR  SUNNY     64  34  32 MISG      29.99S
$$




USA.gov is the U.S. government's official web portal to all federal, state and local government web resources and services.